Location: Lake Almanor
(40.2485°N, 121.1442°W)
Time: 21:40:45
(UTC-08:00)

LightSail 2 - Visible Passes

Search period start: 17 January 2020 00:00
Search period end: 27 January 2020 00:00
Orbit: 703 x 721 km, 24.0° (Epoch: 17 January)

Date Brightness Start Highest point End Pass type
(mag) Time Alt. Az. Time Alt. Az. Time Alt. Az.
18 Jan 7.5 19:06:16 10° S 19:06:59 10° S 19:07:43 10° SSE visible
19 Jan 7.6 19:51:13 10° SSW 19:52:12 12° SSW 19:52:12 12° SSW visible
20 Jan 7.5 18:53:15 10° SSW 18:55:12 12° S 18:57:08 10° SSE visible
21 Jan 7.6 17:55:37 10° S 17:56:59 11° S 17:58:20 10° SSE visible
21 Jan 7.5 19:39:29 10° SSW 19:41:35 12° S 19:41:36 12° S visible
22 Jan 7.5 18:41:10 10° SSW 18:43:21 13° S 18:45:33 10° SSE visible
23 Jan 7.6 17:43:03 10° SSW 17:45:06 12° S 17:47:10 10° SSE visible
23 Jan 7.6 19:28:21 10° SSW 19:29:42 11° S 19:31:02 10° S visible
24 Jan 7.6 18:29:33 10° SSW 18:31:26 12° S 18:33:21 10° SSE visible
26 Jan 7.9 18:19:01 10° SSW 18:19:29 10° S 18:19:58 10° S visible
